TimeCDT,TemperatureF,Dew PointF,Humidity,Sea Level PressureIn,VisibilityMPH,Wind Direction,Wind SpeedMPH,Gust SpeedMPH,PrecipitationIn,Events,Conditions,WindDirDegrees,DateUTC
12:53 AM,68.0,64.9,90,30.15,8.0,Calm,Calm,-,N/A,,Clear,0,2013-10-14 05:53:00
1:53 AM,66.9,64.0,90,30.14,8.0,Calm,Calm,-,N/A,,Clear,0,2013-10-14 06:53:00
2:53 AM,66.9,64.0,90,30.15,7.0,Calm,Calm,-,N/A,,Clear,0,2013-10-14 07:53:00
3:53 AM,66.9,64.0,90,30.14,6.0,Calm,Calm,-,N/A,,Clear,0,2013-10-14 08:53:00
4:53 AM,66.9,64.0,90,30.13,6.0,Calm,Calm,-,N/A,,Clear,0,2013-10-14 09:53:00
5:53 AM,66.9,64.0,90,30.12,7.0,Calm,Calm,-,N/A,,Partly Cloudy,0,2013-10-14 10:53:00
6:53 AM,66.0,64.0,93,30.12,6.0,NE,3.5,-,N/A,,Scattered Clouds,50,2013-10-14 11:53:00
7:53 AM,66.9,64.0,90,30.12,5.0,East,3.5,-,N/A,,Scattered Clouds,90,2013-10-14 12:53:00
8:53 AM,68.0,64.0,87,30.14,8.0,Calm,Calm,-,N/A,,Mostly Cloudy,0,2013-10-14 13:53:00
9:53 AM,68.0,64.0,87,30.14,8.0,East,3.5,-,0.00,,Partly Cloudy,90,2013-10-14 14:53:00
10:53 AM,70.0,64.9,84,30.14,9.0,East,3.5,-,0.00,,Clear,100,2013-10-14 15:53:00
11:53 AM,73.0,64.9,76,30.12,10.0,SE,5.8,-,N/A,,Partly Cloudy,130,2013-10-14 16:53:00
12:53 PM,75.0,66.0,73,30.09,10.0,SSE,8.1,-,N/A,,Clear,150,2013-10-14 17:53:00
1:53 PM,75.9,66.0,71,30.05,10.0,SSE,9.2,-,N/A,,Clear,150,2013-10-14 18:53:00
2:53 PM,77.0,66.0,69,30.03,10.0,SSE,8.1,-,N/A,,Clear,150,2013-10-14 19:53:00
3:53 PM,77.0,66.9,71,30.01,10.0,SSE,6.9,-,N/A,,Mostly Cloudy,150,2013-10-14 20:53:00
4:53 PM,77.0,66.9,71,30.00,10.0,ESE,6.9,-,N/A,,Clear,110,2013-10-14 21:53:00
5:53 PM,75.9,66.9,74,30.00,10.0,SE,5.8,-,N/A,,Partly Cloudy,130,2013-10-14 22:53:00
6:53 PM,75.0,68.0,79,30.01,10.0,ESE,3.5,-,N/A,,Scattered Clouds,120,2013-10-14 23:53:00
7:53 PM,73.9,69.1,85,30.00,10.0,ESE,5.8,-,N/A,,Mostly Cloudy,120,2013-10-15 00:53:00
8:53 PM,73.0,69.1,87,30.01,10.0,ESE,4.6,-,N/A,,Scattered Clouds,120,2013-10-15 01:53:00
9:53 PM,73.0,68.0,84,30.02,10.0,SE,4.6,-,N/A,,Partly Cloudy,140,2013-10-15 02:53:00
10:53 PM,73.0,68.0,84,30.02,10.0,SE,4.6,-,N/A,,Overcast,130,2013-10-15 03:53:00
11:53 PM,73.0,68.0,84,30.01,10.0,SE,4.6,-,N/A,,Overcast,140,2013-10-15 04:53:00